Torna al catalogo

MOLNIYA 3-42

AttivoComunicazioniHEO
NORAD 22178·PAYLOAD·🇷🇺 Russia

Lanciato Oct 14, 1992 da Plesetsk Cosmodrome

Loading…

Prossimi Passaggi (prossime 24 ore)

TLE

AggiornatoSource: Space-Track

Epoca: Sep 14, 2026, 11:03 UTC

1 22178U 92067A   26257.46049378 -.00000105  00000-0  00000-0 0  9994
2 22178  64.3078  30.8926 7016763 246.8337  28.5626  2.20432840114225

Traccia MOLNIYA 3-42 in tempo reale con AllMySat

Download on the App Store